Location: The Saddle
(36.8333°N, 80.3417°W)
Time: 05:00:02
(UTC-04:00)

Tiros 1 - Pass Details

Date: 29 January 2022
Orbit: 630 x 663 km, 48.4° (Epoch: 29 May)

Event Time Altitude Azimuth Distance (km) Brightness Sun altitude
Rises 19:33:54 0° 201° (SSW) 2,966 10.9 -22.2°
Reaches altitude 10° 19:36:34 10° 188° (S) 2,062 9.9 -22.7°
Enters shadow 19:38:51 21° 163° (SSE) 1,472 8.8 -23.2°
